Location: Riedlingen
(48.1569°N, 9.4757°E)
Time: 03:10:14
(UTC+02:00)

ISS - Pass Details

Date: 18 May 2021
Orbit: 417 x 422 km, 51.6° (Epoch: 15 June)

Event Time Altitude Azimuth Distance (km) Brightness Sun altitude
Rises 01:16:29 0° 288° (WNW) 2,371 0.3 -22.3°
Reaches altitude 10° 01:18:37 10° 293° (WNW) 1,506 -0.7 -22.3°
Maximum altitude 01:21:56 52° 11° (N) 534 -3.0 -22.3°
Enters shadow 01:22:34 43° 52° (NE) 600 -2.8 -22.3°
